Weather History for Chicopee, MA

Change the Weather History Date:

Monday, February 4, 2013

  Actual Average Record
Temperature  
Mean Temperature 20 °F -  
Max Temperature 28 °F 34 °F 46 °F (2006)
Min Temperature 12 °F 17 °F -11 °F (2011)
Degree Days  
Heating Degree Days 45    
Moisture  
Dew Point 10 °F    
Average Humidity 59    
Maximum Humidity 93    
Minimum Humidity 37    
Precipitation  
Precipitation 0.00 in - - ()
Sea Level Pressure  
Sea Level Pressure 29.85 in    
Wind  
Wind Speed 9 mph (WNW)    
Max Wind Speed 22 mph    
Max Gust Speed 32 mph    
Visibility 10 miles    
Events Snow    
Averages and records for this station are not official NWS values.
T = Trace of Precipitation, MM = Missing Value Source: NWS Daily Summary

Daily Weather History Graph

Daily Weather History Graph

Search for Another Location

Airport:

Trip Planner

Search our weather history database for the weather conditions in past years. The results will help you decide how hot, cold, wet, or windy it might be!

Date:

Astronomy

Feb. 04, 2013 Rise Set
Actual Time 6:59 AM EST 5:08 PM EST
Civil Twilight 6:30 AM EST 5:38 PM EST
Nautical Twilight 5:57 AM EST 6:11 PM EST
Astronomical Twilight 5:24 AM EST 6:44 PM EST
Moon 1:33 AM EST (2/4) 11:28 AM EST (2/4)
Length of Visible Light 11h 07m
Length of Day
10h 08m
Last Quarter, 37% of the Moon is Illuminated
Feb 4
Last Quarter
Feb 10
New
Feb 17
First Quarter
Feb 25
Full
Mar 4
Last Quarter

Hourly Weather History & Observations

Time (EST) Temp. Windchill Dew Point Humidity Pressure Visibility Wind Dir Wind Speed Gust Speed Precip Events Conditions
12:55 AM 12.2 °F - 10.0 °F 91% 29.76 in 10.0 mi Calm Calm - N/A   Scattered Clouds
1:55 AM 14.5 °F - 12.6 °F 92% 29.76 in 10.0 mi Calm Calm - N/A   Mostly Cloudy
2:55 AM 15.6 °F - 14.0 °F 93% 29.76 in 10.0 mi Calm Calm - N/A   Overcast
3:55 AM 22.1 °F 12.0 °F 15.8 °F 77% 29.76 in 10.0 mi West 9.2 mph - N/A   Overcast
5:55 AM 20.7 °F 10.2 °F 12.6 °F 71% 29.81 in 10.0 mi WNW 9.2 mph - N/A   Clear
6:55 AM 21.7 °F 11.5 °F 11.8 °F 66% 29.83 in 10.0 mi WNW 9.2 mph - N/A   Mostly Cloudy
7:55 AM 21.6 °F 9.3 °F 10.8 °F 63% 29.84 in 10.0 mi WNW 12.7 mph - N/A   Clear
8:55 AM 24.1 °F 11.0 °F 10.4 °F 56% 29.86 in 10.0 mi WNW 16.1 mph - N/A   Partly Cloudy
9:55 AM 25.2 °F 14.4 °F 9.5 °F 52% 29.86 in 10.0 mi West 11.5 mph - N/A   Mostly Cloudy
10:20 AM 24.8 °F 11.5 °F 8.6 °F 50% 29.86 in 10.0 mi West 17.3 mph 23.0 mph N/A Snow Light Snow
10:29 AM 24.8 °F 12.4 °F 8.6 °F 50% 29.86 in 10.0 mi West 15.0 mph 24.2 mph N/A   Mostly Cloudy
10:55 AM 26.4 °F 13.6 °F 9.0 °F 48% 29.86 in 10.0 mi West 17.3 mph 29.9 mph 0.00 in   Mostly Cloudy
11:55 AM 26.2 °F 13.4 °F 6.1 °F 42% 29.84 in 10.0 mi NW 17.3 mph 27.6 mph N/A   Mostly Cloudy
12:55 PM 27.7 °F 14.8 °F 5.4 °F 39% 29.83 in 10.0 mi WNW 18.4 mph 23.0 mph N/A   Overcast
1:55 PM 28.9 °F 15.4 °F 5.7 °F 37% 29.83 in 10.0 mi West 21.9 mph 31.1 mph N/A   Mostly Cloudy
2:15 PM 26.6 °F 12.4 °F 6.8 °F 43% 29.84 in 10.0 mi West 21.9 mph 32.2 mph N/A Snow Light Snow
2:36 PM 28.4 °F 15.1 °F 8.6 °F 43% 29.84 in 10.0 mi West 20.7 mph 26.5 mph N/A   Partly Cloudy
2:55 PM 28.9 °F 16.1 °F 9.3 °F 44% 29.85 in 10.0 mi West 19.6 mph 26.5 mph 0.00 in   Partly Cloudy
3:36 PM 26.6 °F 13.8 °F 10.4 °F 51% 29.84 in 10.0 mi West 17.3 mph - N/A Snow Light Snow
3:45 PM 24.8 °F 12.9 °F 10.4 °F 54% 29.85 in 10.0 mi WNW 13.8 mph - N/A   Partly Cloudy
3:55 PM 25.7 °F 13.5 °F 11.3 °F 55% 29.85 in 10.0 mi WNW 15.0 mph - 0.00 in   Partly Cloudy
4:55 PM 24.4 °F 13.0 °F 10.9 °F 57% 29.86 in 10.0 mi WNW 12.7 mph - N/A   Clear
5:55 PM 23.4 °F 13.5 °F 9.7 °F 56% 29.89 in 10.0 mi West 9.2 mph - N/A   Partly Cloudy
6:55 PM 19.8 °F 11.9 °F 10.0 °F 66% 29.91 in 10.0 mi NW 5.8 mph - N/A   Clear
7:55 PM 20.3 °F 13.8 °F 10.0 °F 65% 29.92 in 10.0 mi WNW 4.6 mph - N/A   Clear
8:55 PM 19.2 °F 9.3 °F 8.6 °F 63% 29.94 in 10.0 mi NW 8.1 mph - N/A   Clear
9:55 PM 18.3 °F - 7.9 °F 64% 29.95 in 10.0 mi Calm Calm - N/A   Overcast
10:55 PM 19.0 °F 13.9 °F 11.3 °F 72% 29.96 in 10.0 mi WSW 3.5 mph - N/A   Overcast
11:55 PM 20.7 °F 13.0 °F 8.2 °F 59% 29.97 in 10.0 mi WNW 5.8 mph - N/A   Overcast